Total_Precipitation_Accumulation
0.86 1.00 1.13 1.39 1.61 1.84 2.06 2.09 2.29 2.51 2.64 2.70 2.57 2.37 2.16 2.01 1.85 1.71 1.62 1.52 1.41 1.34 1.21 1.11 1.09 1.10 1.05 0.95 0.90 0.84 0.73 0.67 0.69 0.67 0.54 0.43 0.38 0.33 0.30 0.33 0.33 0.29 0.27
0.70 0.80 0.94 1.16 1.32 1.48 1.63 1.74 1.87 2.12 2.33 2.41 2.35 2.34 2.37 2.19 1.95 1.78 1.66 1.61 1.55 1.47 1.34 1.21 1.17 1.15 1.12 1.03 0.98 1.01 0.97 0.87 0.85 0.84 0.81 0.65 0.50 0.38 0.33 0.34 0.33 0.32 0.31
0.60 0.65 0.74 0.96 1.08 1.18 1.33 1.43 1.55 1.70 1.83 2.15 2.36 2.35 2.40 2.32 2.02 1.74 1.56 1.59 1.69 1.68 1.54 1.38 1.33 1.30 1.30 1.22 1.14 1.11 1.07 1.06 1.02 1.04 1.11 0.95 0.69 0.49 0.39 0.37 0.36 0.36 0.35
0.62 0.65 0.70 0.83 0.89 0.94 1.10 1.24 1.37 1.47 1.55 1.80 2.04 2.02 1.90 1.85 1.76 1.67 1.65 1.65 1.70 1.77 1.77 1.68 1.55 1.45 1.42 1.38 1.44 1.45 1.34 1.26 1.14 1.07 1.03 1.01 0.85 0.79 0.61 0.44 0.41 0.40 0.38
0.56 0.64 0.66 0.71 0.77 0.77 0.85 1.01 1.22 1.30 1.36 1.46 1.64 1.84 1.83 1.76 1.78 1.77 1.70 1.59 1.53 1.62 1.72 1.74 1.66 1.51 1.38 1.31 1.37 1.44 1.47 1.36 1.27 1.19 1.12 1.09 0.97 0.88 0.86 0.65 0.48 0.45 0.43
0.55 0.57 0.54 0.57 0.69 0.67 0.65 0.78 0.95 1.18 1.27 1.33 1.42 1.56 1.62 1.57 1.56 1.63 1.64 1.63 1.53 1.46 1.49 1.56 1.52 1.51 1.43 1.33 1.34 1.42 1.50 1.49 1.43 1.33 1.22 1.16 1.10 0.96 0.97 0.91 0.69 0.61 0.55
0.50 0.53 0.53 0.59 0.64 0.63 0.59 0.61 0.71 0.92 1.09 1.13 1.16 1.24 1.41 1.45 1.41 1.44 1.51 1.53 1.47 1.39 1.43 1.52 1.47 1.47 1.44 1.41 1.39 1.39 1.35 1.39 1.39 1.33 1.27 1.18 1.09 1.03 1.10 1.15 1.00 0.84 0.69
0.43 0.47 0.49 0.52 0.50 0.51 0.55 0.58 0.63 0.70 0.77 0.82 0.90 0.99 1.10 1.21 1.21 1.19 1.26 1.31 1.28 1.27 1.30 1.42 1.44 1.41 1.42 1.40 1.37 1.33 1.28 1.26 1.27 1.25 1.21 1.14 1.05 1.02 1.07 1.18 1.28 1.22 0.99
0.33 0.35 0.37 0.37 0.34 0.36 0.43 0.50 0.53 0.56 0.61 0.62 0.67 0.78 0.84 0.96 1.07 1.10 1.12 1.18 1.19 1.16 1.15 1.18 1.23 1.25 1.25 1.25 1.27 1.23 1.16 1.13 1.11 1.09 1.07 1.03 0.96 0.93 0.96 1.06 1.23 1.45 1.38
0.26 0.29 0.32 0.31 0.28 0.27 0.29 0.33 0.41 0.52 0.57 0.53 0.55 0.63 0.71 0.77 0.86 0.94 0.99 0.98 0.97 0.97 0.98 1.02 1.02 1.04 1.07 1.12 1.17 1.15 1.08 1.07 1.02 1.00 1.00 0.97 0.93 0.93 0.96 1.02 1.11 1.25 1.38
0.23 0.24 0.24 0.24 0.25 0.23 0.22 0.25 0.32 0.42 0.48 0.47 0.48 0.51 0.56 0.61 0.66 0.71 0.77 0.78 0.78 0.79 0.83 0.89 0.94 0.95 0.95 0.95 1.01 1.08 1.08 1.04 1.00 0.96 0.94 0.91 0.89 0.90 0.91 0.96 1.02 1.07 1.16
0.24 0.22 0.20 0.19 0.21 0.21 0.22 0.23 0.29 0.35 0.41 0.43 0.43 0.46 0.49 0.50 0.54 0.60 0.60 0.62 0.64 0.65 0.65 0.68 0.74 0.79 0.81 0.82 0.83 0.87 0.92 0.94 0.93 0.93 0.95 0.95 0.95 0.98 1.00 1.02 1.02 1.01 1.02
0.26 0.24 0.20 0.19 0.21 0.21 0.22 0.22 0.26 0.32 0.36 0.40 0.40 0.41 0.42 0.43 0.45 0.51 0.54 0.56 0.61 0.65 0.68 0.63 0.62 0.65 0.68 0.74 0.75 0.74 0.78 0.82 0.84 0.86 0.90 0.94 0.99 1.04 1.04 1.03 1.01 0.98 0.95
0.26 0.27 0.28 0.24 0.22 0.22 0.19 0.19 0.21 0.26 0.31 0.34 0.36 0.37 0.41 0.42 0.41 0.43 0.47 0.51 0.55 0.60 0.61 0.62 0.61 0.61 0.62 0.68 0.75 0.78 0.78 0.83 0.87 0.88 0.89 0.91 0.93 0.93 0.93 0.91 0.88 0.90 0.90
0.24 0.25 0.26 0.26 0.25 0.23 0.21 0.18 0.18 0.21 0.25 0.29 0.32 0.35 0.39 0.41 0.43 0.43 0.45 0.48 0.50 0.55 0.57 0.60 0.61 0.62 0.64 0.69 0.77 0.83 0.84 0.86 0.91 0.94 0.92 0.88 0.85 0.80 0.78 0.78 0.77 0.77 0.84
0.22 0.23 0.21 0.23 0.22 0.24 0.24 0.22 0.21 0.21 0.23 0.26 0.27 0.30 0.34 0.37 0.41 0.44 0.44 0.45 0.49 0.55 0.59 0.65 0.71 0.74 0.79 0.94 0.97 0.93 0.91 0.90 0.87 0.84 0.80 0.78 0.78 0.75 0.78 0.77 0.77 0.82 0.92
0.15 0.17 0.19 0.21 0.20 0.20 0.20 0.19 0.19 0.19 0.21 0.24 0.25 0.28 0.31 0.36 0.39 0.45 0.48 0.53 0.59 0.66 0.72 0.76 0.86 0.89 0.92 0.97 0.90 0.88 0.84 0.85 0.83 0.76 0.70 0.66 0.62 0.63 0.59 0.66 0.72 0.74 0.80
0.09 0.10 0.12 0.14 0.14 0.14 0.15 0.17 0.16 0.17 0.19 0.23 0.28 0.31 0.33 0.42 0.49 0.51 0.56 0.63 0.70 0.78 0.84 0.84 0.86 0.89 0.89 0.88 0.80 0.78 0.68 0.65 0.64 0.62 0.58 0.53 0.52 0.52 0.56 0.62 0.68 0.61 0.57
0.10 0.09 0.10 0.12 0.12 0.13 0.14 0.17 0.19 0.20 0.20 0.24 0.30 0.35 0.37 0.47 0.57 0.58 0.62 0.67 0.72 0.79 0.82 0.81 0.77 0.71 0.70 0.69 0.62 0.60 0.54 0.52 0.50 0.49 0.51 0.53 0.49 0.55 0.69 0.71 0.69 0.56 0.47
0.11 0.12 0.12 0.13 0.16 0.18 0.20 0.22 0.25 0.30 0.32 0.34 0.39 0.45 0.52 0.60 0.65 0.65 0.65 0.63 0.62 0.64 0.63 0.59 0.56 0.53 0.50 0.51 0.49 0.48 0.41 0.42 0.43 0.45 0.48 0.54 0.52 0.60 0.72 0.66 0.63 0.56 0.47
0.16 0.15 0.16 0.19 0.21 0.22 0.24 0.27 0.30 0.39 0.44 0.46 0.50 0.52 0.57 0.61 0.60 0.60 0.57 0.54 0.48 0.46 0.45 0.44 0.43 0.42 0.41 0.43 0.42 0.43 0.38 0.38 0.43 0.45 0.43 0.45 0.61 0.69 0.68 0.61 0.51 0.53 0.59
0.14 0.16 0.19 0.22 0.25 0.28 0.33 0.35 0.38 0.43 0.45 0.46 0.47 0.47 0.46 0.47 0.49 0.48 0.48 0.44 0.42 0.39 0.38 0.39 0.41 0.43 0.44 0.44 0.44 0.48 0.51 0.52 0.47 0.42 0.38 0.44 0.62 0.62 0.56 0.50 0.53 0.62 0.59
0.13 0.16 0.20 0.25 0.28 0.29 0.33 0.35 0.36 0.36 0.36 0.37 0.37 0.35 0.32 0.32 0.34 0.34 0.36 0.37 0.36 0.35 0.36 0.39 0.42 0.44 0.45 0.49 0.53 0.54 0.61 0.62 0.53 0.50 0.57 0.60 0.56 0.49 0.46 0.47 0.51 0.51 0.48
0.10 0.13 0.15 0.17 0.20 0.22 0.24 0.25 0.25 0.25 0.24 0.24 0.25 0.25 0.23 0.24 0.26 0.27 0.30 0.31 0.32 0.32 0.32 0.36 0.42 0.43 0.42 0.44 0.50 0.54 0.58 0.61 0.59 0.60 0.63 0.57 0.48 0.43 0.43 0.46 0.46 0.44 0.46
0.10 0.10 0.10 0.11 0.13 0.14 0.15 0.16 0.15 0.16 0.18 0.18 0.18 0.19 0.21 0.22 0.24 0.27 0.30 0.34 0.34 0.39 0.39 0.36 0.38 0.41 0.42 0.45 0.59 0.61 0.59 0.64 0.69 0.67 0.54 0.46 0.43 0.42 0.40 0.38 0.39 0.42 0.47
0.10 0.10 0.10 0.12 0.14 0.14 0.13 0.12 0.12 0.13 0.16 0.18 0.18 0.20 0.21 0.21 0.23 0.25 0.29 0.34 0.36 0.40 0.42 0.42 0.41 0.38 0.42 0.52 0.59 0.63 0.68 0.71 0.70 0.61 0.51 0.47 0.44 0.41 0.38 0.37 0.39 0.40 0.44